WGS SV-1

operational
NORAD ID: 32258 Int'l Des: 2007-046 Owner: AFSMC Country: US
HEOCIRCULARGSO

About WGS SV-1

Description loading...

Live Position

Loading 3D Globe...

Upcoming Passes

Altitude History

Altitude vs Time

uPlot chart will show altitude changes over time

Two-Line Element Set

1 32258U 07046A 26020.07183159 -.00000253 00000-0 00000-0 0 9992
2 32258 0.1111 85.9129 0000437 247.9969 128.8811 1.00274598 50853
Epoch: Jan 20, 2026 • Age: 17 hours

Current Status

Altitude 35783.8 km
Velocity 3.07 km/s
Sub-Earth Point -0.13°S, 42.5°W
Launch Date Oct 11, 2007
Age 18.2 years
Type other

Technical Details

Classification Payload
Mass 5768.00 kg
Dry Mass 2500.00 kg
Total Mass 5768.00 kg
Length 6.00 m
Diameter 3.00 m
Span 46.00 m
Shape Box + 2 Pan
Manufacturer BOES
Bus Type BSS-702HP
Phase Status In Orbit
Owner/State AFSMC/US

Large Constellations

Loading constellations...